Regional Weather Roundup
Issued by NWS

Home | Current Version | Previous Version | Graphics & Text | Print | Product List | Glossary On
Versions: 1 2 3 4 5 6 7 8 9 10 11 12 13 14 15 16 17 18 19 20 21 22 23 24 25 26 27 28 29 30 31 32 33 34 35 36 37 38 39 40 41 42 43 44 45 46 47 48 49 50
000
ASUS43 KOAX 231602
RWRNE

WEATHER ROUNDUP FOR NEBRASKA
NATIONAL WEATHER SERVICE OMAHA NE
1000 AM CST TUE JAN 23 2018

NOTES: SATELLITE DATA IS BEING USED TO AUGMENT CLOUD COVER ABOVE
       12000 FEET.
       "FAIR" INDICATES FEW OR NO CLOUDS BELOW 12,000 FEET WITH NO
       SIGNIFICANT WEATHER AND/OR OBSTRUCTIONS TO VISIBILITY.


NEZ001>004-019>022-054>056-231700-
NEBRASKA PANHANDLE

CITY           SKY/WX    TMP DP  RH WIND       PRES   REMARKS
SCOTTSBLUFF    SUNNY     23  15  71 W10       30.21R WCI  12
ALLIANCE       SUNNY     20  16  84 W14       30.17R WCI   7
CHADRON        SUNNY     24  17  74 W12       30.20R WCI  13
GORDON         FAIR      24  18  77 W7        30.14R WCI  16
KIMBALL        SUNNY     28  17  66 NW16      30.19R WCI  15
SIDNEY         MOSUNNY   27  17  66 NW12      30.20R WCI  17
$$

NEZ057>060-069>072-079>082-231700-
SOUTHWEST NEBRASKA

CITY           SKY/WX    TMP DP  RH WIND       PRES   REMARKS
NORTH PLATTE   PTSUNNY   19  12  74 NW7       30.19R WCI  10
IMPERIAL       MOSUNNY   27  19  72 W9        30.20R WCI  18
LEXINGTON      PTSUNNY   22  15  75 NW13      30.18R WCI  10
MCCOOK         MOSUNNY   24  16  71 W15       30.21R WCI  11
OGALLALA       SUNNY     30  21  70 NW12      30.19R WCI  20
$$

NEZ005>010-023>029-035>040-094-231700-
NORTH CENTRAL NEBRASKA

CITY           SKY/WX    TMP DP  RH WIND       PRES   REMARKS
VALENTINE      CLOUDY    31  24  75 W7        30.13R WCI  24
AINSWORTH      CLOUDY    29  25  84 NW6       30.12R WCI  23
BROKEN BOW     MOSUNNY   30  21  69 NW15      30.12R WCI  19
O`NEILL        SUNNY     17  17  98 W3        30.12R
ORD            SUNNY     15  11  83 N5        30.13R WCI   8
THEDFORD       FLURRIES  32  27  81 W8        30.15R WCI  25
$$

NEZ041-046>049-061>064-073>077-083>087-231700-
SOUTH CENTRAL NEBRASKA

CITY           SKY/WX    TMP DP  RH WIND       PRES   REMARKS
GRAND ISLAND   CLOUDY    20  14  77 W10       30.15R WCI   9
AURORA           N/A     18  15  88 W7        30.15R WCI   9
HASTINGS       CLOUDY    22  16  78 NW9       30.16R WCI  12
HEBRON         SUNNY     22  17  83 W5        30.19R WCI  15
HOLDREGE       CLOUDY    24  18  80 NW5       30.17R WCI  18
KEARNEY        CLOUDY    23  16  74 W10       30.18R WCI  12
YORK           FOG       19  19 100 N9        30.15R VSB 1/4 WCI   9
$$

NEZ011>018-030>034-042>045-231700-
NORTHEAST NEBRASKA

CITY           SKY/WX    TMP DP  RH WIND       PRES   REMARKS
NORFOLK        FLURRIES  26  19  74 NW8       30.13R WCI  18
ALBION         SUNNY     19  13  79 NW9       30.13R WCI   8
BLAIR          CLOUDY    22  19  89 NW10      30.15R WCI  11
COLUMBUS       CLOUDY    21  19  92 NW9       30.17R FOG     WCI  11
FREMONT          N/A    N/A N/A N/A MISG        N/A
TEKAMAH        CLOUDY    22  22 100 NW12      30.17R WCI  10
WAYNE            N/A     21  20  96 NW10      30.14R WCI  10
$$

NEZ050>053-065>068-078-088>093-231700-
SOUTHEAST NEBRASKA

CITY           SKY/WX    TMP DP  RH WIND       PRES   REMARKS
LINCOLN        CLOUDY    24  20  84 NW7       30.18R WCI  16
OMAHA EPPLEY   CLOUDY    24  20  84 NW12      30.17R WCI  13
BEATRICE       CLOUDY    25  22  89 NW6       30.17R WCI  18
FALLS CITY     CLOUDY    25  20  81 W12       30.19R WCI  14
NEBRASKA CITY  CLOUDY    24  23  97 NW8       30.17R WCI  15
PLATTSMOUTH    CLOUDY    23  21  91 NW10      30.16R WCI  12
$$

NEZ044-045-051>053-067-231700-
OMAHA AREA

CITY           SKY/WX    TMP DP  RH WIND       PRES   REMARKS
OMAHA EPPLEY   CLOUDY    24  20  84 NW12      30.17R WCI  13
BLAIR          CLOUDY    22  19  89 NW10      30.15R WCI  11
FREMONT          N/A    N/A N/A N/A MISG        N/A
MILLARD        CLOUDY    24  20  83 NW9       30.18R WCI  15
OFFUTT AFB     CLOUDY    23  19  86 W14       30.16R WCI  11
PLATTSMOUTH    CLOUDY    23  21  91 NW10      30.16R WCI  12
WAHOO          CLOUDY    24  20  86 NW8       30.16S WCI  15
$$



USA.gov is the U.S. government's official web portal to all federal, state and local government web resources and services.